Location: Maiden
(35.5760°N, 81.2120°W)
Time: 00:33:44
(UTC-04:00)

Daily predictions for brighter satellites

Satellite Brightness Start Highest point End
(mag) Time Altitude Azimuth Time Altitude Azimuth Time Altitude Azimuth
CZ-4C R/B 4.3 00:10:21 10° NW 00:16:51 28° WSW 00:17:13 28° WSW
Cosmos 2082 Rocket 3.8 00:15:45 10° NW 00:19:08 26° WNW 00:19:08 26° WNW
SL-8 Rocket 4.4 00:15:15 10° N 00:20:20 60° N 00:20:20 60° N
Cosmos 1943 Rocket 3.7 00:40:16 30° WNW 00:40:16 30° WNW 00:44:58 10° N
Cosmos 2369 Rocket 3.4 00:48:37 38° NNW 00:48:37 38° NNW 00:52:26 10° N
Lacrosse 5 4.0 01:39:54 22° NE 01:39:54 22° NE 01:41:44 10° NE
USA 215 4.4 01:37:33 24° E 01:40:37 37° NE 01:46:30 10° NNW
Cosmos 2344 4.5 01:54:09 10° NNW 02:04:17 84° ENE 02:09:23 46° SE
SeaSat 1 4.5 02:41:27 10° N 02:44:13 19° NW 02:44:13 19° NW
NPP 4.3 02:47:05 10° NNE 02:51:28 49° ENE 02:51:28 49° ENE
ADEOS II 3.5 02:48:32 10° NE 02:52:48 30° E 02:52:48 30° E
CZ-2D R/B 2.6 02:50:18 10° NNE 02:54:36 56° NE 02:54:36 56° NE
Cosmos 1697 Rocket 3.4 02:58:09 46° E 02:58:09 46° E 03:02:49 10° NNE
Resurs 1-4 Rocket 2.5 02:59:53 10° NNE 03:04:07 59° N 03:04:07 59° N
Cosmos 2100 Rocket 3.9 03:00:42 10° N 03:06:54 86° NNE 03:06:54 86° NNE
Cosmos 371 Rocket 4.2 03:09:14 45° N 03:09:14 45° N 03:12:41 10° NNE
Cosmos 1802 Rocket 4.1 03:01:48 10° N 03:07:55 65° E 03:08:22 63° ESE
Cosmos 2123 Rocket 4.1 03:08:12 63° ESE 03:08:29 64° E 03:14:37 10° NNE
Cosmos 1980 Rocket 3.4 03:09:22 30° ESE 03:09:42 31° ESE 03:14:36 10° NE
Cosmos 332 Rocket 4.5 03:13:29 52° NE 03:13:29 52° NE 03:17:15 10° NNE
Cosmos 1025 Rocket 4.2 03:18:40 41° NE 03:18:40 41° NE 03:21:48 10° NNE
SL-19 R/B 4.2 03:13:57 10° NNE 03:19:05 77° NNE 03:19:05 77° NNE
Lacrosse 5 4.1 03:19:04 15° NW 03:20:17 16° NNW 03:23:29 10° N
USA 215 3.5 03:24:49 50° W 03:24:49 50° W 03:29:50 10° NW
Cosmos 2227 Rocket 2.5 03:19:38 10° NNW 03:25:14 61° ENE 03:26:41 46° ESE
Cosmos 2369 3.8 03:27:37 68° ESE 03:27:48 68° ESE 03:33:29 10° NNE
Cosmos 2297 Rocket 2.1 03:22:25 10° NNW 03:28:06 86° ENE 03:28:06 86° ENE
AQUA 4.2 03:23:58 10° N 03:27:52 60° N 03:27:52 60° N
Cosmos 1626 3.9 03:30:22 31° NNE 03:30:22 31° NNE 03:32:28 10° NNE
SL-16 R/B 2.4 03:29:25 74° SW 03:29:40 75° WSW 03:35:57 10° NNW
USA 281 3.4 03:40:15 51° W 03:40:15 51° W 03:46:14 10° NNW
Helios 1B rocket 4.2 03:41:05 10° N 03:43:15 24° NW 03:43:15 24° NW
COSMOS 2455 3.1 03:39:33 10° NW 03:44:31 50° W 03:44:31 50° W
SL-08 R/B 4.4 03:40:27 10° N 03:46:51 86° W 03:48:31 53° S
Cosmos 1544 Rocket 3.7 03:44:18 10° N 03:48:13 70° N 03:48:13 70° N
Cosmos 2056 Rocket 3.4 03:48:56 70° SSE 03:49:19 75° ESE 03:54:26 10° NNE
Timation 1 Rocket 4.4 03:48:12 10° NNW 03:54:11 74° ENE 03:59:08 15° SSE
Lacrosse 4 Rocket 2.0 03:58:12 51° NW 03:58:12 51° NW 04:02:13 10° NNE
Cosmos 1455 Rocket 4.4 03:54:47 10° NNW 03:57:15 28° NW 03:57:15 28° NW
Iridium 2 4.0 03:59:20 63° NE 03:59:20 63° NE 04:02:42 10° N
Cosmos 1371 Rocket 3.9 04:01:26 65° WSW 04:02:00 72° WNW 04:07:13 10° NNE
Cosmos 1536 Rocket 3.4 04:02:50 80° WNW 04:02:50 80° WNW 04:07:12 10° N
Cosmos 1725 Rocket 4.0 03:57:02 10° NNW 04:03:11 62° W 04:04:31 50° SW
Cosmos 1340 2.9 04:08:45 59° ESE 04:08:52 59° E 04:12:34 10° NNE
GP-B 2.9 04:04:36 10° N 04:09:02 77° W 04:09:17 74° WSW
Meteor 1-28 Rocket 3.2 04:09:46 70° N 04:09:46 70° N 04:13:05 10° N
Cosmos 2219 3.5 04:05:31 10° NW 04:10:53 45° WSW 04:10:53 45° WSW
Cosmos 1953 4.1 04:08:02 10° NNW 04:09:44 21° NW 04:09:44 21° NW
Cosmos 2322 Rocket 4.3 04:07:50 10° SE 04:11:52 20° E 04:15:56 10° NE
Meteor 1-24 Rocket 3.8 04:10:43 34° S 04:13:10 72° E 04:18:36 10° NNE
IRS-1D 3.8 04:07:58 10° N 04:13:12 56° WNW 04:14:13 48° WSW
Cosmos 2233 Rocket 3.8 04:07:15 10° N 04:13:26 81° W 04:16:33 31° S
Spot 1 4.4 04:12:00 28° SSE 04:14:22 73° ENE 04:19:14 10° N
IDEFIX/ARIANE 42P 2.5 04:10:32 10° NNE 04:15:49 87° WNW 04:17:34 44° SSW
ATLAS 2A CENTAUR R/B 3.9 04:15:27 10° SE 04:16:15 11° SE 04:17:35 10° ESE
Cosmos 2016 Rocket 4.5 04:12:14 10° NNW 04:17:55 38° W 04:18:41 37° WSW
Cosmos 1140 Rocket 3.4 04:16:18 10° NNW 04:21:32 83° WSW 04:25:08 21° SSE
Cosmos 2263 Rocket 4.1 04:17:09 10° N 04:22:05 30° ENE 04:27:00 10° ESE
Timation 2 Rocket 4.3 04:18:41 10° NW 04:24:11 39° WSW 04:24:49 38° WSW
OAO 2 Rocket 3.3 04:24:23 44° WSW 04:26:02 76° S 04:31:22 10° E
Meteor 2-5 Rocket 3.7 04:26:45 38° SSW 04:28:54 64° W 04:34:30 10° N
IRS-P3 4.0 04:23:49 10° NNE 04:29:10 86° WNW 04:31:43 32° SSW
Cosmos 2285 Rocket 4.2 04:27:02 36° SW 04:29:31 57° WNW 04:35:50 10° N
ADEOS II 3.1 04:28:13 10° N 04:32:41 29° WNW 04:33:45 27° W
CZ-2D R/B 4.1 04:32:43 10° NW 04:35:00 13° WNW 04:35:55 12° WNW
Atlas Centaur 2 3.7 04:32:42 24° SSW 04:35:21 30° SSE 04:40:53 10° ESE
Centaur D-1AR AC-39 3.7 04:33:31 23° S 04:35:32 27° SSE 04:48:28 10° ESE
CZ-4C R/B 3.5 04:34:41 42° SSW 04:35:51 58° W 04:40:01 10° NNW
SL-08 R/B 3.8 04:32:47 10° SSE 04:37:24 59° ENE 04:41:59 10° N
Cosmos 1697 Rocket 4.2 04:39:53 18° W 04:41:38 21° WNW 04:45:49 10° N
ARIANE 5 R/B 2.4 04:36:54 10° NNE 04:42:02 83° WNW 04:45:00 25° SSW
Cosmos 1190 Rocket 4.0 04:37:51 10° NNW 04:43:00 61° WSW 04:47:53 11° S
Cosmos 1420 Rocket 4.3 04:43:56 32° SW 04:46:01 50° WNW 04:51:04 10° N
COSMOS 2441 4.3 04:42:09 10° N 04:47:02 71° WNW 04:49:50 26° SSW
NOSS 3-2 (A) 3.6 04:43:56 21° S 04:47:31 59° ESE 04:53:25 10° NE
Cosmos 220 Rocket 4.0 04:46:50 33° SW 04:48:40 65° WNW 04:53:04 10° N
CZ-2D R/B 3.6 04:44:45 10° NNE 04:49:11 86° ESE 04:52:07 21° S
Cosmos 1980 Rocket 3.2 04:51:09 23° WSW 04:53:34 32° WNW 04:58:38 10° N
BREEZE-M R/B 3.9 04:51:42 17° S 04:53:45 28° SE 04:57:01 10° ENE
CZ-4B R/B 3.7 04:53:21 10° N 04:58:13 53° WNW 05:01:21 22° SW
USA 238 DEB 4.1 04:55:03 13° SSW 05:00:40 58° ESE 05:07:14 10° NE
USA 238 4.1 04:55:08 13° SSW 05:00:46 58° ESE 05:07:20 10° NE
BREEZE-M DEB (TANK) 4.2 05:03:10 12° NW 05:04:16 16° NNW 05:06:12 10° NNE
Cosmos 1072 Rocket 4.5 04:58:02 10° N 05:04:23 82° W 05:10:46 10° S
CZ-2C R/B 2.5 05:06:27 16° S 05:06:27 16° S 05:07:45 10° SSE
Cosmos 676 Rocket 4.0 05:01:26 10° NNW 05:06:39 64° WSW 05:11:52 10° S
CZ-3B R/B 3.1 05:06:37 12° S 05:06:56 13° SSE 05:08:37 10° SE
Cosmos 1892 Rocket 3.4 05:03:33 15° S 05:07:08 79° W 05:11:29 10° N
ADEOS Rocket 4.1 05:02:14 16° SSW 05:07:25 35° W 05:14:21 10° NNW
Cosmos 2227 Rocket 3.8 05:05:33 10° WNW 05:08:24 15° W 05:08:24 15° W
Cosmos 405 3.4 05:07:31 10° NNW 05:10:49 39° W 05:12:53 19° SSW
MSX 4.5 05:07:10 10° N 05:12:27 38° WNW 05:16:29 16° SW
Cosmos 1346 Rocket 2.7 05:11:26 16° SSW 05:14:28 65° W 05:18:21 10° N
Cosmos 1300 4.2 05:13:14 10° NW 05:15:54 18° W 05:16:30 18° WSW
Okean 1-7 Rocket 3.8 05:13:31 10° S 05:18:01 77° E 05:22:36 10° N
Cosmos 1891 Rocket 4.5 05:12:58 10° NNW 05:18:54 59° W 05:24:46 10° S
FENGYUN 3A 4.1 05:17:28 10° NNE 05:22:49 64° ESE 05:28:08 10° S
CENTAUR R/B 2.5 05:20:44 10° SSW 05:26:13 79° ESE 05:32:48 10° NNE
SL-16 R/B 2.3 05:22:13 12° SSW 05:27:25 63° WNW 05:33:04 10° NNE
Cosmos 2058 Rocket 3.2 05:23:46 10° N 05:28:18 87° E 05:32:48 10° S
Cosmos 1452 Rocket 4.2 05:24:59 14° SW 05:29:04 38° WNW 05:34:01 10° N
PAYLOAD A 3.9 05:24:32 10° N 05:29:10 59° WNW 05:33:45 10° SSW
Cosmos 1331 Rocket 4.0 05:25:14 10° SSW 05:30:23 89° ESE 05:35:34 10° NNE
Cosmos 1703 3.2 05:27:46 10° S 05:31:38 89° ESE 05:35:31 10° N
Cosmos 1455 2.1 05:28:53 10° N 05:32:43 73° W 05:36:33 10° S
Cosmos 1606 Rocket 4.2 05:29:19 10° NNW 05:33:19 35° W 05:37:19 10° SSW
Cosmos 1726 Rocket 3.9 05:29:29 10° NNW 05:33:41 45° W 05:37:53 10° SSW
ISS -2.5 05:30:30 10° NW 05:33:46 45° NE 05:37:01 10° ESE
Tsikada Rocket 4.1 05:27:59 10° S 05:34:23 83° W 05:40:48 10° N
Meteor 2-1 Rocket 4.4 05:29:35 10° N 05:35:16 78° E 05:40:49 10° SSE
Cosmos 2228 4.2 05:35:59 10° NW 05:39:24 23° W 05:42:49 10° SW
USA 234 4.2 05:34:14 10° ENE 05:40:23 42° SE 05:46:30 10° SSW
Cosmos 1484 Rocket 3.2 05:39:03 10° NNE 05:42:58 66° E 05:46:47 10° S
Cosmos 389 Rocket 2.4 05:40:19 10° NNW 05:43:46 64° W 05:47:09 10° S
Cosmos 1184 Rocket 2.8 05:43:02 10° S 05:46:11 77° E 05:49:23 10° NNE
Cosmos 1110 Rocket 4.3 05:45:37 10° SW 05:50:40 51° WNW 05:55:43 10° N
CZ-2C R/B 3.8 05:48:00 10° N 05:51:35 32° WNW 05:55:11 10° SW
SEDSat Delta rocket 4.2 05:47:28 10° SW 05:52:10 35° SSE 05:56:20 10° E
ASTEX 1 3.9 05:48:03 10° SSE 05:52:58 69° E 05:57:56 10° N
Cosmos 2322 Rocket 2.6 05:50:04 10° SW 05:55:29 47° WNW 06:00:58 10° N
CZ-2C R/B 3.3 05:51:21 10° N 05:56:01 36° WNW 06:00:42 10° SW
Cosmos 1850 Rocket 4.1 05:51:57 10° NNW 05:57:12 59° WSW 06:02:24 10° S
